TimeCDT,TemperatureF,Dew PointF,Humidity,Sea Level PressureIn,VisibilityMPH,Wind Direction,Wind SpeedMPH,Gust SpeedMPH,PrecipitationIn,Events,Conditions,WindDirDegrees,DateUTC
12:15 AM,39.2,33.8,81,29.78,10.0,North,27.6,39.1,N/A,,Overcast,350,2012-10-19 05:15:00
12:35 AM,39.2,35.6,87,29.78,10.0,North,26.5,36.8,N/A,,Overcast,350,2012-10-19 05:35:00
12:55 AM,39.2,33.8,81,29.78,10.0,North,28.8,39.1,N/A,,Overcast,350,2012-10-19 05:55:00
1:15 AM,39.2,33.8,81,29.79,10.0,North,25.3,36.8,N/A,,Overcast,350,2012-10-19 06:15:00
1:35 AM,39.2,33.8,81,29.79,10.0,North,26.5,34.5,N/A,,Overcast,350,2012-10-19 06:35:00
1:55 AM,39.2,33.8,81,29.80,10.0,North,24.2,33.4,N/A,,Overcast,350,2012-10-19 06:55:00
2:15 AM,39.2,33.8,81,29.80,10.0,North,23.0,32.2,N/A,,Overcast,350,2012-10-19 07:15:00
2:35 AM,39.2,33.8,81,29.80,10.0,North,23.0,29.9,N/A,,Overcast,350,2012-10-19 07:35:00
2:55 AM,39.2,33.8,81,29.81,10.0,North,19.6,28.8,N/A,,Overcast,350,2012-10-19 07:55:00
3:15 AM,39.2,33.8,81,29.81,10.0,North,24.2,31.1,N/A,,Overcast,350,2012-10-19 08:15:00
3:35 AM,39.2,33.8,81,29.81,10.0,North,25.3,29.9,N/A,,Overcast,350,2012-10-19 08:35:00
3:55 AM,39.2,33.8,81,29.81,10.0,North,24.2,29.9,N/A,,Overcast,350,2012-10-19 08:55:00
4:15 AM,39.2,33.8,81,29.81,10.0,North,21.9,29.9,N/A,,Overcast,350,2012-10-19 09:15:00
4:35 AM,39.2,33.8,81,29.81,10.0,North,21.9,28.8,N/A,,Overcast,350,2012-10-19 09:35:00
4:55 AM,39.2,33.8,81,29.82,10.0,NNW,19.6,27.6,N/A,,Overcast,340,2012-10-19 09:55:00
5:15 AM,37.4,33.8,87,29.81,10.0,North,23.0,31.1,N/A,,Overcast,350,2012-10-19 10:15:00
5:35 AM,37.4,33.8,87,29.82,10.0,NNW,21.9,27.6,N/A,,Overcast,340,2012-10-19 10:35:00
5:55 AM,37.4,33.8,87,29.81,10.0,NNW,19.6,27.6,N/A,,Overcast,340,2012-10-19 10:55:00
6:15 AM,37.4,33.8,87,29.81,10.0,NNW,24.2,29.9,N/A,,Overcast,340,2012-10-19 11:15:00
6:35 AM,37.4,33.8,87,29.81,10.0,North,20.7,29.9,N/A,,Overcast,350,2012-10-19 11:35:00
6:55 AM,37.4,33.8,87,29.81,10.0,NNW,19.6,28.8,N/A,,Overcast,340,2012-10-19 11:55:00
7:15 AM,37.4,33.8,87,29.81,10.0,North,19.6,26.5,N/A,,Overcast,350,2012-10-19 12:15:00
7:35 AM,37.4,33.8,87,29.81,10.0,North,19.6,24.2,N/A,,Overcast,350,2012-10-19 12:35:00
7:55 AM,37.4,33.8,87,29.80,10.0,NNW,15.0,-,N/A,,Overcast,340,2012-10-19 12:55:00
8:15 AM,37.4,33.8,87,29.81,10.0,NNW,18.4,-,N/A,,Overcast,340,2012-10-19 13:15:00
8:35 AM,37.4,33.8,87,29.81,10.0,NNW,15.0,21.9,N/A,,Overcast,330,2012-10-19 13:35:00
8:55 AM,37.4,33.8,87,29.81,10.0,NNW,19.6,24.2,N/A,,Overcast,340,2012-10-19 13:55:00
9:15 AM,37.4,33.8,87,29.81,10.0,NNW,18.4,-,N/A,,Overcast,340,2012-10-19 14:15:00
9:35 AM,37.4,33.8,87,29.81,10.0,North,18.4,-,N/A,,Overcast,350,2012-10-19 14:35:00
9:55 AM,39.2,33.8,81,29.81,10.0,NNW,17.3,-,N/A,,Overcast,340,2012-10-19 14:55:00
10:15 AM,39.2,33.8,81,29.81,10.0,NNW,15.0,-,N/A,,Overcast,340,2012-10-19 15:15:00
10:35 AM,39.2,33.8,81,29.82,10.0,NNW,13.8,24.2,N/A,,Overcast,340,2012-10-19 15:35:00
10:55 AM,39.2,33.8,81,29.81,10.0,NNW,13.8,21.9,N/A,,Overcast,340,2012-10-19 15:55:00
11:15 AM,39.2,33.8,81,29.81,10.0,North,16.1,-,N/A,,Overcast,360,2012-10-19 16:15:00
11:35 AM,39.2,33.8,81,29.81,10.0,North,16.1,23.0,N/A,,Overcast,350,2012-10-19 16:35:00
11:55 AM,39.2,33.8,81,29.81,10.0,NNW,16.1,20.7,N/A,,Overcast,340,2012-10-19 16:55:00
12:15 PM,39.2,33.8,81,29.81,10.0,NNW,13.8,-,N/A,,Overcast,330,2012-10-19 17:15:00
12:35 PM,39.2,33.8,81,29.80,10.0,North,15.0,-,N/A,,Overcast,350,2012-10-19 17:35:00
12:55 PM,41.0,35.6,81,29.79,10.0,NNW,16.1,-,N/A,,Overcast,340,2012-10-19 17:55:00
1:15 PM,41.0,35.6,81,29.79,10.0,North,16.1,-,N/A,,Overcast,350,2012-10-19 18:15:00
1:35 PM,41.0,35.6,81,29.78,10.0,NNW,13.8,-,N/A,,Overcast,330,2012-10-19 18:35:00
1:55 PM,41.0,35.6,81,29.78,10.0,North,10.4,-,N/A,,Overcast,350,2012-10-19 18:55:00
2:15 PM,41.0,35.6,81,29.77,10.0,North,11.5,-,N/A,,Overcast,350,2012-10-19 19:15:00
2:35 PM,42.8,35.6,76,29.76,10.0,NNW,10.4,-,N/A,,Overcast,330,2012-10-19 19:35:00
2:55 PM,41.0,35.6,81,29.75,10.0,NNW,10.4,-,N/A,,Overcast,330,2012-10-19 19:55:00
3:15 PM,41.0,35.6,81,29.76,10.0,NW,15.0,-,N/A,,Overcast,320,2012-10-19 20:15:00
3:35 PM,42.8,35.6,76,29.75,10.0,NNW,12.7,-,N/A,,Overcast,340,2012-10-19 20:35:00
3:55 PM,42.8,35.6,76,29.74,10.0,North,9.2,-,N/A,,Overcast,350,2012-10-19 20:55:00
4:15 PM,42.8,35.6,76,29.74,10.0,North,9.2,-,N/A,,Overcast,350,2012-10-19 21:15:00
4:35 PM,42.8,35.6,76,29.74,10.0,North,9.2,-,N/A,,Overcast,360,2012-10-19 21:35:00
4:55 PM,42.8,35.6,76,29.74,10.0,North,8.1,-,N/A,,Overcast,10,2012-10-19 21:55:00
5:15 PM,42.8,35.6,76,29.74,10.0,North,5.8,-,N/A,,Overcast,360,2012-10-19 22:15:00
5:35 PM,42.8,35.6,76,29.74,10.0,North,5.8,-,N/A,,Overcast,10,2012-10-19 22:35:00
5:55 PM,42.8,35.6,76,29.74,10.0,North,4.6,-,N/A,,Overcast,10,2012-10-19 22:55:00
6:15 PM,41.0,35.6,81,29.73,10.0,NE,4.6,-,N/A,,Overcast,40,2012-10-19 23:15:00
6:35 PM,41.0,35.6,81,29.72,10.0,East,5.8,-,N/A,,Overcast,80,2012-10-19 23:35:00
6:55 PM,41.0,37.4,87,29.72,10.0,ENE,5.8,-,N/A,,Overcast,70,2012-10-19 23:55:00
7:15 PM,41.0,37.4,87,29.72,10.0,East,4.6,-,N/A,,Overcast,80,2012-10-20 00:15:00
7:35 PM,41.0,37.4,87,29.73,10.0,Calm,Calm,-,N/A,,Overcast,0,2012-10-20 00:35:00
7:55 PM,41.0,35.6,81,29.72,10.0,Calm,Calm,-,N/A,,Overcast,0,2012-10-20 00:55:00
8:15 PM,41.0,37.4,87,29.72,10.0,Calm,Calm,-,N/A,,Overcast,0,2012-10-20 01:15:00
8:35 PM,41.0,37.4,87,29.72,10.0,SSE,3.5,-,N/A,,Overcast,150,2012-10-20 01:35:00
8:55 PM,41.0,37.4,87,29.72,10.0,SE,3.5,-,N/A,,Overcast,140,2012-10-20 01:55:00
9:15 PM,41.0,37.4,87,29.72,10.0,ESE,3.5,-,N/A,,Overcast,110,2012-10-20 02:15:00
9:35 PM,41.0,37.4,87,29.72,10.0,SE,3.5,-,N/A,,Overcast,140,2012-10-20 02:35:00
9:55 PM,41.0,37.4,87,29.71,10.0,South,3.5,-,N/A,,Overcast,180,2012-10-20 02:55:00
10:15 PM,41.0,37.4,87,29.71,10.0,South,5.8,-,N/A,,Overcast,190,2012-10-20 03:15:00
10:35 PM,41.0,37.4,87,29.71,10.0,South,5.8,-,N/A,,Overcast,180,2012-10-20 03:35:00
10:55 PM,41.0,37.4,87,29.70,10.0,SSE,5.8,-,N/A,,Overcast,160,2012-10-20 03:55:00
11:15 PM,41.0,37.4,87,29.69,10.0,South,8.1,-,N/A,,Overcast,170,2012-10-20 04:15:00
11:35 PM,41.0,37.4,87,29.68,10.0,South,6.9,-,N/A,,Overcast,180,2012-10-20 04:35:00
11:55 PM,41.0,37.4,87,29.68,10.0,SSE,8.1,-,N/A,,Overcast,160,2012-10-20 04:55:00